Change the Weather History Date:

Wednesday, September 18, 2013

  Actual Average Record
Temperature  
Mean Temperature 62 °F -  
Max Temperature 69 °F 65 °F 87 °F (1998)
Min Temperature 55 °F 44 °F 33 °F (2012)
Degree Days  
Heating Degree Days 3    
Growing Degree Days 12 (Base 50)    
Moisture  
Dew Point 61 °F    
Average Humidity 95    
Maximum Humidity 100    
Minimum Humidity 83    
Precipitation  
Precipitation 0.00 in - - ()
Sea Level Pressure  
Sea Level Pressure 29.75 in    
Wind  
Wind Speed 7 mph (SE)    
Max Wind Speed 10 mph    
Max Gust Speed -    
Visibility 4 miles    
Events      
Averages and records for this station are not official NWS values.
T = Trace of Precipitation, MM = Missing Value Source: NWS Daily Summary

Daily Weather History Graph

Daily Weather History Graph

Search for Another Location

Airport or City:

Trip Planner

Search our weather history database for the weather conditions in past years. The results will help you decide how hot, cold, wet, or windy it might be!

Date:

Astronomy

Sep. 18, 2013 Rise Set
Actual Time 7:01 AM CDT 7:24 PM CDT
Civil Twilight 6:31 AM CDT 7:54 PM CDT
Nautical Twilight 5:55 AM CDT 8:29 PM CDT
Astronomical Twilight 5:18 AM CDT 9:06 PM CDT
Moon 6:46 PM CDT (9/18) 6:03 AM CDT (9/18)
Length of Visible Light 13h 23m
Length of Day
12h 22m
Waxing Gibbous, 99% of the Moon is Illuminated
Sep 18
Waxing Gibbous
Sep 19
Full
Sep 26
Last Quarter
Oct 4
New
Oct 11
First Quarter

Hourly Weather History & Observations

Time (CDT) Temp. Dew Point Humidity Pressure Visibility Wind Dir Wind Speed Gust Speed Precip Events Conditions
12:13 AM 55.4 °F 53.6 °F 94% 29.90 in 5.0 mi SSE 8.1 mph - N/A   Overcast
12:33 AM 55.4 °F 53.6 °F 94% 29.89 in 5.0 mi SSE 6.9 mph - N/A   Overcast
12:54 AM 55.4 °F 53.6 °F 94% 29.88 in 7.0 mi SSE 9.2 mph - N/A   Overcast
1:13 AM 55.4 °F 55.4 °F 100% 29.88 in 5.0 mi SSE 8.1 mph - N/A   Overcast
1:33 AM 55.4 °F 55.4 °F 100% 29.87 in 4.0 mi SSE 6.9 mph - N/A   Overcast
1:54 AM 55.4 °F 55.4 °F 100% 29.86 in 2.0 mi SSE 5.8 mph - N/A   Overcast
2:13 AM 55.4 °F 55.4 °F 100% 29.86 in 2.0 mi SSE 8.1 mph - N/A   Overcast
2:33 AM 55.4 °F 55.4 °F 100% 29.85 in 1.2 mi SE 6.9 mph - N/A   Overcast
2:54 AM 55.4 °F 55.4 °F 100% 29.85 in 1.2 mi SSE 5.8 mph - N/A   Overcast
3:13 AM 55.4 °F 55.4 °F 100% 29.84 in 1.0 mi SSE 5.8 mph - N/A   Overcast
3:33 AM 55.4 °F 55.4 °F 100% 29.84 in 1.0 mi SE 4.6 mph - N/A   Overcast
3:54 AM 55.4 °F 55.4 °F 100% 29.84 in 1.0 mi SSE 5.8 mph - N/A   Overcast
4:13 AM 55.4 °F 55.4 °F 100% 29.83 in 1.0 mi SE 4.6 mph - N/A   Overcast
4:33 AM 55.4 °F 55.4 °F 100% 29.82 in 1.0 mi SSE 4.6 mph - N/A   Overcast
4:54 AM 55.4 °F 55.4 °F 100% 29.82 in 0.8 mi SE 4.6 mph - N/A   Overcast
5:13 AM 55.4 °F 55.4 °F 100% 29.81 in 0.8 mi SE 3.5 mph - N/A   Overcast
5:33 AM 57.2 °F 55.4 °F 94% 29.80 in 0.8 mi SE 4.6 mph - N/A   Overcast
5:54 AM 57.2 °F 55.4 °F 94% 29.79 in 0.8 mi SE 5.8 mph - N/A   Overcast
6:13 AM 57.2 °F 57.2 °F 100% 29.79 in 0.8 mi SE 4.6 mph - N/A   Overcast
6:33 AM 57.2 °F 57.2 °F 100% 29.79 in 1.0 mi SE 5.8 mph - N/A   Overcast
6:53 AM 57.2 °F 57.2 °F 100% 29.79 in 1.2 mi SE 8.1 mph - N/A   Overcast
7:13 AM 57.2 °F 57.2 °F 100% 29.79 in 1.5 mi SE 4.6 mph - N/A   Overcast
7:34 AM 57.2 °F 57.2 °F 100% 29.80 in 1.5 mi ESE 4.6 mph - N/A   Overcast
7:53 AM 57.2 °F 57.2 °F 100% 29.80 in 1.0 mi SE 4.6 mph - N/A   Overcast
8:13 AM 57.2 °F 57.2 °F 100% 29.80 in 0.8 mi SE 4.6 mph - N/A   Overcast
8:34 AM 57.2 °F 57.2 °F 100% 29.80 in 1.0 mi SE 4.6 mph - N/A   Overcast
8:53 AM 57.2 °F 57.2 °F 100% 29.80 in 1.2 mi SE 5.8 mph - N/A   Overcast
9:13 AM 59.0 °F 57.2 °F 94% 29.79 in 1.5 mi SE 5.8 mph - N/A   Overcast
9:34 AM 59.0 °F 59.0 °F 100% 29.78 in 1.8 mi SE 5.8 mph - N/A   Overcast
9:53 AM 60.8 °F 59.0 °F 94% 29.78 in 2.0 mi SE 5.8 mph - N/A   Overcast
10:13 AM 60.8 °F 60.8 °F 100% 29.78 in 3.0 mi SE 6.9 mph - N/A   Overcast
10:34 AM 60.8 °F 60.8 °F 100% 29.78 in 3.0 mi SE 6.9 mph - N/A   Overcast
10:53 AM 60.8 °F 60.8 °F 100% 29.78 in 3.0 mi SSE 6.9 mph - N/A   Overcast
11:13 AM 60.8 °F 60.8 °F 100% 29.77 in 4.0 mi SE 6.9 mph - N/A   Overcast
11:34 AM 62.6 °F 60.8 °F 94% 29.77 in 4.0 mi SSE 5.8 mph - N/A   Overcast
11:53 AM 62.6 °F 62.6 °F 100% 29.75 in 5.0 mi SE 8.1 mph - N/A   Overcast
12:13 PM 62.6 °F 62.6 °F 100% 29.74 in 5.0 mi SSE 5.8 mph - N/A   Overcast
12:34 PM 64.4 °F 62.6 °F 94% 29.73 in 7.0 mi SSE 10.4 mph - N/A   Overcast
12:53 PM 64.4 °F 62.6 °F 94% 29.73 in 7.0 mi SE 8.1 mph - N/A   Overcast
1:13 PM 66.2 °F 62.6 °F 88% 29.73 in 7.0 mi SE 9.2 mph - N/A   Overcast
1:34 PM 66.2 °F 64.4 °F 94% 29.71 in 5.0 mi SSE 5.8 mph - N/A   Overcast
1:53 PM 66.2 °F 64.4 °F 94% 29.70 in 5.0 mi SE 6.9 mph - N/A   Overcast
2:13 PM 66.2 °F 64.4 °F 94% 29.71 in 4.0 mi SE 6.9 mph - N/A   Overcast
2:34 PM 68.0 °F 64.4 °F 88% 29.71 in 4.0 mi SSE 6.9 mph - N/A   Overcast
2:53 PM 68.0 °F 64.4 °F 88% 29.71 in 4.0 mi SSE 4.6 mph - N/A   Overcast
3:13 PM 68.0 °F 64.4 °F 88% 29.70 in 4.0 mi SSE 8.1 mph - N/A   Overcast
3:34 PM 68.0 °F 64.4 °F 88% 29.69 in 4.0 mi SSE 10.4 mph - N/A   Overcast
3:53 PM 68.0 °F 64.4 °F 88% 29.70 in 4.0 mi SSE 6.9 mph - N/A   Overcast
4:13 PM 69.8 °F 64.4 °F 83% 29.68 in 4.0 mi SE 9.2 mph - N/A   Overcast
4:33 PM 69.8 °F 64.4 °F 83% 29.68 in 5.0 mi SSE 9.2 mph - N/A   Overcast
4:53 PM 69.8 °F 64.4 °F 83% 29.68 in 5.0 mi SSE 9.2 mph - N/A   Overcast
5:13 PM 69.8 °F 64.4 °F 83% 29.67 in 5.0 mi SSE 8.1 mph - N/A   Overcast
5:33 PM 69.8 °F 64.4 °F 83% 29.68 in 7.0 mi SSE 9.2 mph - N/A   Overcast
5:53 PM 69.8 °F 64.4 °F 83% 29.67 in 7.0 mi SSE 8.1 mph - N/A   Overcast
6:13 PM 69.8 °F 64.4 °F 83% 29.67 in 7.0 mi SSE 8.1 mph - N/A   Overcast
6:33 PM 69.8 °F 64.4 °F 83% 29.67 in 7.0 mi SSE 10.4 mph - N/A   Overcast
6:54 PM 69.8 °F 64.4 °F 83% 29.67 in 7.0 mi SE 6.9 mph - N/A   Overcast
7:13 PM 69.8 °F 64.4 °F 83% 29.66 in 7.0 mi SE 6.9 mph - N/A   Mostly Cloudy
7:33 PM 68.0 °F 64.4 °F 88% 29.66 in 7.0 mi SE 6.9 mph - N/A   Scattered Clouds
7:53 PM 66.2 °F 64.4 °F 94% 29.67 in 7.0 mi SE 5.8 mph - N/A   Clear
8:13 PM 66.2 °F 64.4 °F 94% 29.67 in 5.0 mi SE 5.8 mph - N/A   Clear
8:33 PM 66.2 °F 64.4 °F 94% 29.68 in 5.0 mi SE 4.6 mph - N/A   Clear
8:53 PM 66.2 °F 64.4 °F 94% 29.68 in 5.0 mi SE 4.6 mph - N/A   Clear
9:13 PM 66.2 °F 64.4 °F 94% 29.68 in 5.0 mi SE 5.8 mph - N/A   Clear
9:33 PM 66.2 °F 64.4 °F 94% 29.68 in 4.0 mi SE 6.9 mph - N/A   Clear
9:53 PM 66.2 °F 64.4 °F 94% 29.67 in 5.0 mi SE 8.1 mph - N/A   Clear
10:13 PM 66.2 °F 66.2 °F 100% 29.67 in 5.0 mi SSE 8.1 mph - N/A   Clear
10:33 PM 66.2 °F 66.2 °F 100% 29.68 in 5.0 mi SSE 8.1 mph - N/A   Scattered Clouds
10:53 PM 66.2 °F 66.2 °F 100% 29.68 in 4.0 mi SSE 8.1 mph - N/A   Overcast
11:14 PM 66.2 °F 66.2 °F 100% 29.66 in 4.0 mi SSE 9.2 mph - N/A   Overcast
11:33 PM 66.2 °F 66.2 °F 100% 29.65 in 3.0 mi SE 8.1 mph - N/A   Overcast
11:53 PM 66.2 °F 66.2 °F 100% 29.66 in 3.0 mi SE 8.1 mph - N/A   Overcast